Regional Weather Roundup
Issued by NWS

Home | Current Version | Previous Version | Graphics & Text | Print | Product List | Glossary On
Versions: 1 2 3 4 5 6 7 8 9 10 11 12 13 14 15 16 17 18 19 20 21 22 23 24 25 26 27
000
ASUS45 KBOU 220407
RWRCO

WEATHER ROUNDUP FOR COLORADO
NATIONAL WEATHER SERVICE DENVER/BOULDER CO
1000 PM MDT MON AUG 21 2017

NOTE: "FAIR" INDICATES FEW OR NO CLOUDS BELOW 12000 FEET WITH NO
SIGNIFICANT WEATHER AND/OR OBSTRUCTIONS TO VISIBILITY.

COZ001>005-013-030-031-220500-
...NORTHWEST COLORADO...

CITY           SKY/WX    TMP DP  RH WIND       PRES   REMARKS
CRAIG          FAIR      58  40  51 E3        30.25R
HAYDEN         FAIR      66  33  29 E6        30.29R
MEEKER         FAIR      58  37  45 NE6       30.27R
RABBIT EARS PA FAIR      54  32  43 SE3       30.60R
STEAMBOAT SPGS FAIR      62  35  36 CALM      30.31R
WALDEN         NOT AVBL
$$

COZ006>008-011-220500-
...WEST CENTRAL VALLEYS...

CITY           SKY/WX    TMP DP  RH WIND       PRES   REMARKS
GRAND JUNCTION FAIR      80  44  27 SE17      30.14R
MONTROSE       FAIR      70  45  40 E3        30.27R
EAGLE          FAIR      66  39  37 CALM      30.32R
RIFLE          FAIR      72  41  32 E14       30.19R
DELTA          FAIR      72  48  42 N6        30.23R
NUCLA          MOCLDY    75  37  25 SE6       30.29R
$$

COZ017>023-064>068-220500-
...SOUTHWEST COLORADO...

CITY           SKY/WX    TMP DP  RH WIND       PRES   REMARKS
DURANGO        CLOUDY    65  45  48 CALM      30.35R
CORTEZ         CLOUDY    62  58  86 E6        30.30R
PAGOSA SPRINGS CLOUDY    62  42  46 NE8       30.43R
TELLURIDE      FAIR      62  39  43 E13G23    30.51S
WOLF CREEK PAS MOCLDY    39  39 100 N8        30.75R
$$

COZ009-010-012-014-032>034-037-058>063-220500-
...CENTRAL COLORADO...

CITY           SKY/WX    TMP DP  RH WIND       PRES   REMARKS
ASPEN          FAIR      64  41  42 SE13      30.39R
BUENA VISTA    FAIR      53  48  82 CALM      30.48S
COPPER MTN     FAIR      52  36  54 S14       30.73R
BERTHOUD PASS  FAIR      41  36  81 MISG      30.75S
COTTONWOOD PAS FAIR      55  39  54 W5        30.60S
GUNNISON       FAIR      60  47  61 VRB3      30.45R
KREMMLING      FAIR      66  41  39 CALM      30.39R
LEADVILLE      FAIR      45  38  76 NE5       30.59R
MONARCH PASS   MOCLDY    43  37  81 E16       30.81S
SALIDA         FAIR      57  52  82 CALM      30.53S
SUNLIGHT       FAIR      54  30  40 CALM      30.64R
WILKERSON PASS FAIR      48  32  53 NE5       30.71S
$$

COZ069>075-220500-
...SAN LUIS VALLEY/SANGRE DE CRISTO MOUNTAINS...

CITY           SKY/WX    TMP DP  RH WIND       PRES   REMARKS
ALAMOSA        CLOUDY    60  47  61 NW13      30.41R
DEL NORTE      DRIZZLE   54  50  88 W10       30.48S
LA VETA PASS   NOT AVBL
SAGUACHE         N/A     55  50  82 N8        30.47S
$$

COZ035-036-038>040-220500-
...NORTHERN COLORADO FRONT RANGE...

CITY           SKY/WX    TMP DP  RH WIND       PRES   REMARKS
DENVER INTL AP FAIR      65  50  58 E8        30.26R
DMNS CITY PARK   N/A     70  52  51 E3G16     30.26S
AURORA         PTCLDY    65  52  62 SE6       30.29R
FRONT RANGE AP FAIR      66  52  59 SE7       30.28S
ERIE MUNI ARPT FAIR      69  47  46 NW3       30.32R
BOULDER MUN AP FAIR      70  46  43 CALM      30.28R
CENTENNIAL     FAIR      69  52  54 SE6       30.30R
BROOMFIELD     FAIR      72  50  46 E5        30.30R
FORT COLLINS   FAIR      65  50  58 CALM      30.27R
LONGMONT       FAIR      68  52  56 N5        30.29R
$$

COZ041-046-047-076>085-087-088-220500-
...PIKES PEAK/PALMER DIVIDE AND SOUTHERN FOOTHILLS...

CITY           SKY/WX    TMP DP  RH WIND       PRES   REMARKS
COLO. SPRINGS  MOCLDY    68  48  48 S10       30.33R
A. F. ACADEMY  FAIR      64  43  45 N6        30.34R
SCHRIEVER AFB  MOCLDY    65  49  56 N9        30.33R
CHEYENNE MTN   FAIR      68  43  40 NW3       30.33R
ELLICOTT       FAIR     N/A N/A N/A E8        30.30R
FALCON         FAIR      64  47  54 N8        30.37R
FORT CARSON    FAIR      70  49  48 N6        30.29R
LIMON          FAIR      61  55  81 N6        30.26R
MONUMENT HILL  FAIR      57  46  67 SE6       30.40R
CANON CITY     CLEAR     70  54  56 W14       30.28S
WALSENBURG     NOT AVBL
TRINIDAD       MOCLDY    66  52  60 NW15G24   30.28R
$$

COZ042>045-048>051-090-091-220500-
...NORTHEAST COLORADO...

CITY           SKY/WX    TMP DP  RH WIND       PRES   REMARKS
GREELEY ARPT   FAIR      64  51  62 NE6       30.24R
AKRON          FAIR      62  53  72 N8        30.23R
BURLINGTON     FAIR      70  64  81 N8        30.16R
WRAY           NOT AVBL
YUMA           FAIR      63  50  63 N8        30.19R
STERLING       FAIR      61  52  72 N6        30.20R
HOLYOKE        FAIR      66  61  82 NE7       30.18R
FORT MORGAN    FAIR      65  45  48 N9        30.24R
$$

COZ086-089-092>099-220500-
...SOUTHEAST COLORADO...

CITY           SKY/WX    TMP DP  RH WIND       PRES   REMARKS
PUEBLO         FAIR      72  49  44 W8        30.22R
LA JUNTA       FAIR      74  57  55 NE3       30.15R
LAMAR          FAIR      72  61  68 NE7       30.08R
SPRINGFIELD      N/A     67  65  93 S8        30.14R
$$




USA.gov is the U.S. government's official web portal to all federal, state and local government web resources and services.